Change the Weather History Date:

Friday, January 24, 2014

  Actual Average Record
Temperature  
Mean Temperature 26 °F 34 °F  
Max Temperature 52 °F 46 °F 74 °F (1981)
Min Temperature 0 °F 22 °F -6 °F (1963)
Degree Days  
Heating Degree Days 39 31  
Month to date heating degree days 773 763  
Since 1 July heating degree days 2771 2562  
Cooling Degree Days 0 0  
Month to date cooling degree days 0 0  
Year to date cooling degree days 0 0  
Moisture  
Dew Point 8 °F    
Average Humidity 52    
Maximum Humidity 83    
Minimum Humidity 21    
Precipitation  
Precipitation 0.00 in 0.02 in 0.81 in (1921)
Month to date precipitation 0.12 0.49  
Year to date precipitation 0.12 0.49  
Snow  
Snow 0.00 in 0.10 in - ()
Month to date snowfall 0.0 2.2  
Since 1 July snowfall 6.5 5.1  
Snow Depth 0.00 in    
Sea Level Pressure  
Sea Level Pressure 30.33 in    
Wind  
Wind Speed 9 mph (SW)    
Max Wind Speed 18 mph    
Max Gust Speed 24 mph    
T = Trace of Precipitation, MM = Missing Value Source: NWS Daily Summary

Daily Weather History Graph

Daily Weather History Graph

Search for Another Location

Airport or City:

Trip Planner

Search our weather history database for the weather conditions in past years. The results will help you decide how hot, cold, wet, or windy it might be!

Date:

Astronomy

Jan. 24, 2014 Rise Set
Actual Time 7:42 AM CST 5:50 PM CST
Civil Twilight 7:15 AM CST 6:18 PM CST
Nautical Twilight 6:43 AM CST 6:49 PM CST
Astronomical Twilight 6:12 AM CST 7:20 PM CST
Moon 1:13 AM CST (1/24) 12:08 PM CST (1/24)
Length of Visible Light 11h 02m
Length of Day
10h 07m
Last Quarter, 44% of the Moon is Illuminated
Jan 24
Last Quarter
Jan 30
New
Feb 6
First Quarter
Feb 14
Full
Feb 22
Last Quarter

Hourly Weather History & Observations

Time (CST) Temp. Windchill Dew Point Humidity Pressure Visibility Wind Dir Wind Speed Gust Speed Precip Events Conditions
12:56 AM 1.9 °F - -5.1 °F 72% 30.76 in - Calm Calm - N/A   Unknown
1:56 AM 5.0 °F -5.6 °F -5.1 °F 63% 30.72 in - SSW 5.8 mph - N/A   Unknown
2:56 AM 7.0 °F -3.3 °F -6.0 °F 55% 30.69 in - SSW 5.8 mph - N/A   Unknown
3:56 AM 7.0 °F -3.3 °F -2.9 °F 64% 30.64 in - SSW 5.8 mph - N/A   Unknown
4:56 AM 8.1 °F -3.2 °F -0.9 °F 67% 30.61 in - South 6.9 mph - N/A   Unknown
5:56 AM 6.1 °F -6.8 °F -0.9 °F 73% 30.58 in - South 8.1 mph - N/A   Unknown
6:56 AM 6.1 °F -2.8 °F -0.9 °F 73% 30.55 in - South 4.6 mph - N/A   Unknown
7:56 AM 5.0 °F -5.6 °F -0.9 °F 76% 30.52 in - SSW 5.8 mph - N/A   Unknown
8:56 AM 10.0 °F -3.7 °F 1.0 °F 67% 30.46 in - South 10.4 mph - N/A   Unknown
9:56 AM 19.0 °F 8.2 °F 6.1 °F 57% 30.43 in - SSW 9.2 mph - N/A   Unknown
10:56 AM 28.9 °F 18.6 °F 12.0 °F 49% 30.38 in - WSW 12.7 mph - N/A   Unknown
11:56 AM 34.0 °F 24.2 °F 12.9 °F 42% 30.33 in - SW 15.0 mph - N/A   Unknown
12:56 PM 39.9 °F 32.9 °F 12.9 °F 33% 30.26 in - SW 11.5 mph - N/A   Unknown
1:56 PM 46.0 °F 39.3 °F 14.0 °F 28% 30.18 in - WSW 16.1 mph 23.0 mph N/A   Unknown
2:56 PM 50.0 °F - 12.9 °F 23% 30.14 in - WSW 12.7 mph 19.6 mph N/A   Unknown
3:56 PM 51.1 °F - 12.9 °F 22% 30.10 in - WSW 13.8 mph - N/A   Unknown
4:56 PM 52.0 °F - 12.9 °F 21% 30.08 in - WSW 11.5 mph - N/A   Unknown
5:56 PM 50.0 °F - 12.9 °F 23% 30.07 in - WSW 8.1 mph - N/A   Unknown
6:56 PM 48.0 °F - 14.0 °F 26% 30.07 in - WSW 10.4 mph - N/A   Unknown
7:56 PM 44.1 °F 39.0 °F 15.1 °F 31% 30.08 in - WSW 9.2 mph - N/A   Unknown
8:56 PM 42.1 °F 37.7 °F 16.0 °F 35% 30.07 in - West 6.9 mph - N/A   Unknown
9:56 PM 39.9 °F 36.7 °F 17.1 °F 40% 30.05 in - WNW 4.6 mph - N/A   Unknown
10:56 PM 39.0 °F 36.8 °F 17.1 °F 41% 30.03 in - WNW 3.5 mph - N/A   Unknown
11:56 PM 39.0 °F 34.8 °F 18.0 °F 43% 30.02 in - WNW 5.8 mph - N/A   Unknown